Tracking 29892 objects as of 21-Nov-2024
HD Live streaming from Space Station
objects crossing your sky now

COSMOS 2162

Track COSMOS 2162 now!
10-day predictions
COSMOS 2162 is classified as:


NORAD ID: 21733
Int'l Code: 1991-068F
Perigee: 1,413.9 km
Apogee: 1,426.4 km
Inclination: 82.6 °
Period: 114.1 minutes
Semi major axis: 7791 km
RCS: 1.159 m2 (large)
Launch date: September 28, 1991
Source: Commonwealth of Independent States (former USSR) (CIS)
Launch site: PLESETSK MISSILE AND SPACE COMPLEX (PKMTR)
Your satellite tracking list
Your tracking list is empty




NASA's NSSDC Master Catalog

Two Line Element Set (TLE):
1 21733U 91068F   24325.51839633  .00000026  00000-0  85557-4 0  9996
2 21733  82.5889 345.1939 0008020  79.5912  75.5654 12.62419662527550
Source of the keplerian elements: AFSPC